Вернуться в каталог

STARLINK-37567

АктивенСвязьSSO
NORAD 68903·PAYLOAD·🇺🇸 United States

Запущен Apr 30, 2026 с Vandenberg Space Force Base

Loading…

Ближайшие Пролёты (ближайшие 24 часа)

TLE

СвежийSource: CelesTrak SupGP

Эпоха: Sep 15, 2026, 03:08 UTC

1 68903C 26097J   26258.13104167 -.00052809  00000+0 -16392-2 0  2582
2 68903  97.2852  92.3224 0001801  93.0245  36.8149 15.33467000    17

Отслеживайте STARLINK-37567 в реальном времени с AllMySat

Download on the App Store